Dewpoint
69 70 71 71 71 71 71 72 72 72 72 72 72 72 72 73 72 72 73 73 74 74 74 74 74 74 74 75 74 75 76 76 76 76 76 75 75 75 75 75 75 75 75 75 75 76 76 76 75 75 75 74 75 75 75 75 75 75 75 74 73 72 71 71 70 71 72 72 72 72 72 73 73 75 75 74 75 75 75 76 77 75 75 76 76
70 70 71 71 70 71 71 71 72 72 72 72 72 72 72 73 73 73 72 73 73 73 74 74 74 74 73 74 75 75 76 76 75 75 75 75 75 74 74 75 75 75 75 75 75 75 75 75 75 74 74 74 73 73 74 74 74 73 74 74 74 74 73 72 71 71 71 72 72 73 73 74 73 76 74 73 74 76 75 76 75 75 75 76 76
70 70 71 71 71 71 71 71 72 72 71 71 71 71 71 72 73 72 72 72 73 73 73 73 74 75 74 74 75 75 75 75 75 75 75 75 75 75 75 75 75 74 74 75 75 75 74 75 74 74 73 73 74 73 74 74 74 74 73 73 74 73 74 73 72 71 71 72 73 72 74 75 74 74 75 74 76 76 76 75 73 73 74 75 75
71 71 71 71 71 71 71 71 71 71 71 71 71 71 71 71 72 72 71 71 72 73 73 73 73 74 74 74 74 75 75 75 75 75 75 75 75 75 75 75 75 74 74 74 74 74 74 74 74 74 74 74 74 73 74 74 74 74 73 74 74 73 74 74 73 73 72 71 73 72 74 73 74 74 74 75 74 75 74 75 74 74 74 73 74
72 72 72 71 72 72 71 71 71 71 71 71 70 71 71 70 71 71 71 71 71 71 73 73 73 73 73 74 74 74 74 75 75 75 75 75 75 75 75 75 75 74 74 74 74 74 74 74 74 74 74 73 73 72 72 73 73 73 73 74 74 73 73 74 74 73 73 72 72 73 74 74 75 75 75 74 74 75 75 75 73 74 75 73 70
72 73 72 72 72 72 71 71 71 71 70 70 70 70 70 70 70 70 71 71 71 70 71 71 72 72 73 74 74 74 74 74 75 75 74 75 75 75 75 75 74 74 74 74 74 74 74 74 74 74 73 73 72 72 73 72 72 72 73 73 73 73 73 73 73 73 73 72 72 72 73 72 73 73 74 74 73 73 74 74 74 74 74 71 70
72 72 73 73 72 72 72 72 72 71 71 71 70 70 70 70 69 69 70 70 70 69 69 70 72 72 72 73 73 74 74 74 74 75 74 75 75 75 74 75 74 74 74 74 73 74 74 74 74 74 74 74 73 73 73 73 72 73 73 73 73 73 72 72 72 72 72 72 72 72 72 72 72 72 73 74 74 74 73 73 70 72 74 73 71
71 71 71 71 70 71 71 72 72 72 72 72 72 70 70 70 70 70 70 70 69 68 68 68 69 71 71 72 73 73 74 73 74 74 74 74 74 74 74 74 74 74 74 74 73 73 73 73 73 74 74 74 74 74 74 73 74 73 73 73 73 72 72 72 71 71 71 71 71 70 71 71 72 72 73 72 72 72 73 73 70 70 71 73 73
71 71 71 70 70 70 70 72 72 71 71 71 71 71 71 70 70 70 70 70 68 69 68 68 68 69 70 71 72 72 72 72 73 73 73 73 73 73 73 74 74 74 73 73 73 73 73 73 73 73 74 75 75 75 74 74 73 73 74 73 73 72 72 72 72 71 71 70 70 71 70 70 71 71 70 70 70 69 72 72 72 72 71 71 71
70 70 70 70 70 71 71 71 71 71 70 70 70 70 71 71 70 69 69 68 70 70 70 69 68 68 68 70 71 71 72 72 72 69 70 73 73 72 73 73 73 73 73 73 72 72 72 72 72 75 75 76 76 75 73 74 75 73 73 74 73 73 72 72 72 71 71 70 70 70 69 69 68 70 69 69 71 72 70 71 70 71 71 71 71
71 71 70 71 71 70 71 71 71 71 70 71 70 70 70 70 70 71 70 70 70 70 70 68 68 67 67 67 68 69 70 71 69 66 66 67 72 73 72 73 73 73 72 73 73 72 72 72 72 73 75 76 76 75 74 73 73 74 74 75 75 73 72 72 71 71 71 70 70 70 69 69 69 70 69 68 69 69 70 72 71 71 70 69 66
70 70 71 70 70 71 71 70 70 70 70 70 70 71 71 71 70 70 70 69 70 69 69 68 69 67 66 66 67 67 68 69 65 64 65 64 68 72 72 72 71 72 72 72 72 72 72 71 71 71 72 73 74 75 75 74 72 72 71 71 72 73 73 73 72 72 71 70 70 70 69 69 69 70 68 68 70 71 72 72 72 71 70 70 70
68 68 69 70 70 70 71 71 71 71 71 71 71 71 70 70 70 71 71 71 71 70 70 69 69 68 68 68 66 66 67 66 63 63 63 63 63 68 71 72 71 71 71 71 72 72 72 72 71 71 70 73 74 73 74 73 72 71 71 71 72 71 68 68 69 73 73 73 71 70 70 70 70 70 71 72 73 70 71 71 71 71 71 70 69
68 68 68 69 69 69 70 70 70 71 71 71 71 71 71 71 71 71 72 72 71 70 70 69 69 69 69 69 69 67 67 66 62 61 61 61 62 64 70 71 71 71 71 71 71 71 72 71 71 71 72 72 73 73 74 74 73 73 73 73 72 72 71 69 68 68 70 72 72 71 71 72 70 71 72 73 72 70 70 70 70 71 70 69 70
65 66 66 66 67 68 68 67 66 67 68 69 70 70 71 71 72 71 72 71 70 70 70 71 71 70 69 69 70 69 67 65 62 60 58 58 60 63 68 69 70 71 72 72 72 71 71 71 72 71 72 72 72 72 72 72 73 72 72 71 71 71 71 70 70 70 71 70 71 72 72 72 72 72 72 73 72 72 72 71 71 71 71 72 71
61 63 63 64 65 66 66 67 66 65 66 68 68 68 69 70 70 71 72 72 72 72 72 72 71 71 71 70 69 70 70 65 61 60 58 58 59 65 67 69 69 70 70 71 72 72 72 72 72 72 71 71 71 68 71 72 72 71 71 71 70 70 69 70 66 67 71 71 71 71 70 70 68 71 72 71 72 74 73 73 71 71 70 68 67
60 60 61 62 63 64 65 65 66 67 65 65 65 66 67 68 70 71 71 71 72 72 72 72 73 72 72 72 71 71 70 68 60 59 59 57 59 66 67 68 68 69 69 70 71 71 72 72 72 71 72 71 69 64 64 70 72 71 71 70 69 68 68 68 65 63 63 62 63 64 64 63 63 62 61 62 68 71 72 70 69 70 69 67 67
58 59 59 60 61 62 63 63 63 64 65 66 66 66 67 68 68 69 71 70 70 71 71 71 72 72 72 72 72 72 72 70 62 57 56 56 62 67 68 68 68 68 69 69 70 71 71 72 73 73 72 72 66 64 63 68 71 71 70 69 69 69 69 68 67 67 62 60 60 61 61 62 62 62 62 61 61 65 69 69 70 70 69 68 66
57 58 58 59 60 61 62 62 62 62 63 64 65 66 67 67 68 68 69 70 70 71 71 71 72 73 73 72 73 73 73 71 63 58 56 55 61 66 67 67 68 67 68 68 69 69 70 71 71 72 72 71 63 61 62 67 70 70 70 69 68 69 69 69 68 68 69 69 70 69 69 67 67 68 68 64 64 68 69 69 70 69 68 68 68
57 57 57 58 59 60 60 61 61 61 61 62 64 66 67 68 67 67 68 69 69 70 71 71 71 71 72 72 72 72 72 73 71 60 56 55 55 66 68 67 67 67 68 67 68 68 68 69 69 64 62 60 59 58 58 59 68 70 69 68 68 68 68 69 70 69 70 69 70 70 70 71 73 72 72 71 71 71 70 69 68 68 69 68 68
56 56 56 57 57 58 59 59 59 60 61 62 63 64 65 66 67 67 67 68 69 69 69 69 69 70 70 71 72 71 72 72 71 58 55 53 54 60 67 68 69 69 69 70 69 69 69 70 70 67 60 57 55 54 53 54 58 65 67 68 68 69 69 68 68 70 69 70 71 71 70 71 71 71 71 71 70 70 70 69 68 68 68 68 68
55 55 55 56 57 58 58 58 59 58 60 60 60 61 63 64 66 67 68 68 68 67 67 66 66 69 70 71 71 71 72 72 71 63 59 56 55 55 64 68 69 70 70 70 70 70 70 70 71 68 58 55 52 52 51 53 55 64 67 59 59 59 65 67 67 67 68 68 69 69 70 70 69 70 70 70 69 70 69 71 70 68 68 67 68
54 55 55 55 57 58 58 57 56 57 58 59 59 60 62 62 62 64 66 67 66 66 66 66 67 69 69 70 70 71 72 72 69 70 60 54 53 54 54 59 60 66 68 68 69 69 70 70 70 67 55 51 50 51 52 52 56 63 57 56 56 57 61 64 66 67 67 67 68 68 69 69 68 69 69 70 69 71 70 70 71 70 70 70 70
54 54 56 55 55 57 57 56 56 56 57 58 60 59 60 61 62 62 63 64 64 64 65 67 67 68 67 66 67 69 71 72 70 66 63 56 53 53 54 55 54 61 65 66 68 68 68 69 67 55 52 49 50 51 53 55 60 55 54 55 56 58 63 66 66 67 67 67 67 67 68 68 68 69 69 71 70 73 72 72 72 71 71 71 71
54 53 53 54 55 56 56 55 55 55 55 57 57 59 59 60 60 61 61 62 62 62 63 64 64 65 66 65 66 67 69 71 70 66 62 59 57 56 56 56 55 54 63 66 67 67 62 53 52 53 53 52 51 52 56 58 56 54 54 55 59 63 65 66 67 67 67 67 67 68 68 69 70 70 72 73 73 72 73 71 71 71 72 73 73
55 54 54 55 54 56 55 53 53 54 55 55 56 58 57 58 60 60 59 59 60 61 61 62 62 62 63 64 64 66 68 69 68 68 68 66 62 61 60 61 64 61 62 64 61 58 55 54 54 53 55 59 65 67 68 68 63 61 60 62 65 65 65 66 67 67 67 68 68 68 68 69 70 71 72 72 72 71 71 71 71 70 72 72 72
55 54 53 54 55 56 56 55 53 53 53 53 53 56 56 56 57 58 58 58 57 59 59 60 60 61 61 62 63 65 66 67 67 67 67 67 67 68 67 67 66 65 66 66 64 63 64 65 64 60 59 59 60 61 61 64 66 67 67 67 67 67 68 68 68 67 68 68 67 68 68 68 70 70 70 71 70 71 71 71 70 70 70 71 71
53 53 53 53 55 57 56 57 56 54 53 54 52 53 54 54 55 55 55 55 54 54 55 56 57 57 58 60 62 63 64 65 65 62 63 63 63 64 64 65 64 63 64 62 61 62 64 64 63 66 66 66 67 67 67 68 68 67 68 68 69 69 69 68 68 68 68 68 68 68 68 69 69 69 69 69 69 70 71 70 70 70 70 70 69
54 53 54 54 55 56 55 55 55 55 54 54 54 54 55 53 54 55 54 56 55 52 54 54 56 55 57 59 61 61 60 60 61 53 57 51 55 58 60 62 60 61 60 53 59 63 64 64 65 65 65 65 65 66 66 66 67 67 68 68 68 69 70 70 68 68 69 69 68 68 68 68 68 69 69 68 69 70 71 71 71 70 70 70 69
53 54 55 55 55 54 54 53 54 54 52 52 53 53 55 51 52 54 52 55 53 50 51 55 55 55 56 58 60 59 58 59 52 46 45 45 44 44 45 43 43 51 53 51 57 62 64 64 64 64 65 65 65 65 66 66 67 68 68 66 68 68 69 69 69 69 69 68 68 68 68 68 68 68 68 68 69 70 70 68 70 71 69 69 68
53 53 54 54 54 54 53 53 53 54 53 52 53 53 53 54 48 47 49 52 49 45 44 45 46 49 55 56 57 55 53 50 48 45 43 42 42 42 42 42 42 42 43 55 63 63 63 63 63 64 64 66 65 66 66 66 66 67 66 68 68 68 68 68 69 69 69 69 69 69 68 68 68 68 68 68 69 69 70 70 69 69 69 68 68
51 52 54 54 54 54 53 54 53 53 53 53 54 54 53 53 54 49 47 48 48 46 44 44 45 47 47 49 55 56 53 50 46 43 43 43 42 42 41 41 41 41 43 46 63 63 62 62 62 62 62 61 61 61 61 62 62 63 63 64 64 64 66 66 66 68 67 66 66 67 68 68 69 69 69 68 68 68 69 69 69 68 68 68 68
50 51 52 53 53 54 53 53 53 53 53 53 53 53 53 53 53 53 55 49 48 47 46 46 46 45 46 47 44 45 46 45 43 42 41 43 42 42 41 42 42 41 43 59 62 61 62 61 60 60 58 58 58 58 59 59 60 60 61 62 62 63 65 65 64 66 65 65 65 65 67 67 67 67 67 68 68 68 69 68 69 69 69 68 68
49 52 52 52 53 53 52 53 53 53 53 53 54 54 54 54 54 54 54 54 55 52 50 48 47 47 48 47 47 45 43 43 43 42 42 44 43 42 44 48 40 39 48 62 61 61 60 59 58 57 56 56 56 57 57 57 58 58 59 60 61 62 63 63 64 64 63 63 64 64 65 64 65 66 66 67 68 69 69 68 69 69 69 69 68
49 51 51 51 52 51 52 52 52 52 52 53 53 53 54 54 55 55 54 54 53 53 54 55 52 48 52 50 48 44 43 43 44 43 43 43 43 41 43 57 60 61 59 60 60 59 57 56 55 55 55 55 54 54 54 55 55 56 57 58 59 59 60 61 61 61 61 61 62 62 63 63 65 65 65 66 66 67 67 68 68 69 68 69 69
48 48 48 49 50 50 51 52 52 52 52 53 53 53 53 54 54 55 54 54 54 54 54 54 55 53 51 49 48 48 47 46 45 43 43 42 42 45 60 60 60 60 59 59 58 57 56 55 55 54 54 53 54 53 53 53 53 54 54 55 56 56 56 58 58 58 59 60 60 61 60 62 62 62 63 64 64 65 65 66 66 66 67 67 68
47 47 48 49 50 50 51 51 51 52 50 51 51 52 53 54 55 53 53 52 52 53 53 54 54 55 54 56 55 50 49 48 46 44 43 43 40 50 59 61 60 59 58 57 56 55 54 53 54 54 53 53 53 53 53 53 53 54 54 55 55 54 55 55 55 56 57 58 58 59 59 59 59 60 62 62 62 62 63 63 64 64 65 65 64
47 49 49 51 51 51 50 50 51 49 51 50 50 51 51 53 52 50 50 50 50 51 52 52 53 53 53 54 57 56 56 51 50 51 50 49 53 58 59 60 60 59 57 56 55 54 53 53 53 53 53 53 53 53 53 53 53 53 53 54 54 55 54 55 55 55 55 55 56 56 57 57 57 58 59 59 59 60 61 61 60 60 61 62 63
47 49 49 48 48 48 48 49 49 48 48 49 48 48 48 48 47 47 48 49 50 50 50 51 52 52 52 54 55 56 55 55 55 55 57 57 58 57 57 58 57 57 56 56 55 54 53 52 52 52 52 52 52 51 51 51 52 52 52 52 52 53 53 52 52 53 52 52 53 53 54 55 55 57 57 56 55 56 56 56 57 58 59 60 61
47 47 47 46 46 46 46 47 47 47 48 47 45 45 45 44 44 46 48 48 48 48 48 49 49 51 52 54 54 54 53 53 54 55 55 57 57 57 57 57 57 56 56 55 53 52 52 51 51 51 51 51 51 51 51 51 50 50 50 50 50 50 50 51 51 51 51 51 51 52 53 53 53 53 53 53 52 52 54 54 55 56 57 58 59
46 45 45 44 44 44 45 45 45 45 45 45 45 45 44 44 45 48 48 47 47 47 48 49 49 51 52 52 49 48 52 53 53 54 55 56 57 57 57 56 56 55 55 53 53 52 51 51 50 50 50 50 50 50 49 49 49 48 48 49 48 49 49 49 50 50 50 51 51 51 51 51 51 50 50 50 50 51 53 53 53 54 55 56 57
44 44 43 43 43 43 43 44 44 45 44 45 44 45 45 46 47 47 47 47 47 47 48 48 49 50 50 48 46 45 51 53 54 54 55 55 56 57 57 56 55 54 53 52 52 51 51 51 50 50 49 49 49 49 48 48 47 47 47 47 47 48 48 48 48 49 49 49 49 48 48 48 49 49 48 48 50 49 49 50 51 53 53 54 56
44 43 43 43 43 43 43 44 45 45 45 46 46 47 47 46 46 47 46 46 46 46 46 46 47 49 50 50 50 49 52 53 53 54 54 55 55 55 55 53 53 52 51 51 51 51 50 50 49 49 49 48 48 48 48 48 47 47 47 47 47 47 47 47 47 47 47 47 47 47 47 46 46 46 47 48 48 48 48 49 50 51 52 53 54
45 44 44 44 44 45 46 46 46 46 46 47 47 46 46 46 45 45 45 45 45 46 46 47 48 50 49 50 50 51 52 52 53 53 54 54 54 53 53 51 50 50 50 50 50 49 49 48 48 48 48 48 48 48 48 47 47 47 47 46 46 46 46 46 45 45 45 45 45 45 45 45 45 45 45 46 46 46 46 48 49 50 51 52 52
43 43 43 43 43 44 44 46 46 45 45 45 44 44 45 44 44 44 44 44 45 45 47 49 50 49 49 49 50 51 51 51 52 53 53 53 53 51 50 49 49 49 49 50 49 48 48 48 47 47 47 47 47 48 47 47 47 46 46 45 45 44 44 45 45 45 44 45 44 44 44 44 44 43 44 44 45 45 45 46 47 49 49 50 51
41 42 42 41 41 42 41 41 44 41 42 42 41 41 41 41 42 43 43 44 44 45 48 48 48 49 49 48 49 49 50 51 50 50 50 50 50 50 50 50 49 49 49 48 48 47 47 47 46 46 46 46 46 46 46 46 46 46 45 44 44 43 43 43 44 44 43 44 43 43 43 43 43 43 45 44 44 44 45 46 47 48 49 50 51
41 41 41 40 39 40 41 41 40 41 41 40 39 39 39 40 41 42 44 43 43 44 44 45 44 44 45 46 46 47 48 49 48 49 48 48 47 47 47 47 47 47 46 46 46 46 46 46 46 46 45 45 44 45 44 43 43 43 44 43 42 42 42 42 42 43 43 43 43 42 41 41 41 42 42 43 43 43 44 45 46 48 49 50 51
40 39 39 39 38 39 38 38 39 41 38 38 38 39 40 40 40 41 41 41 40 41 42 43 43 43 45 45 46 46 46 47 47 48 47 47 47 47 47 46 47 46 46 45 45 45 45 45 45 44 44 44 44 43 43 43 43 42 42 42 41 41 41 42 42 41 41 40 41 41 41 41 40 41 41 42 42 43 45 46 47 48 49 50 51
38 36 36 37 37 37 37 37 38 36 36 37 37 37 39 39 40 39 39 38 38 39 39 40 41 43 43 44 45 45 46 46 46 46 46 46 46 46 45 45 45 44 44 43 43 44 44 43 44 43 43 43 43 42 42 42 41 41 41 41 40 41 39 39 39 40 40 40 40 40 41 41 41 41 42 42 43 44 45 46 47 48 49 50 51
37 36 35 35 35 35 35 35 35 34 35 35 36 37 38 37 36 37 36 37 37 38 39 40 41 41 41 42 44 45 45 45 44 45 45 45 45 44 44 44 44 44 43 43 43 43 43 43 43 43 43 42 42 42 41 41 40 40 40 39 39 37 37 39 40 40 39 39 39 39 39 40 40 41 41 41 42 43 44 45 47 48 49 50 51
37 36 36 35 35 35 34 34 34 34 35 36 36 35 36 35 35 35 36 36 37 37 39 39 39 39 40 41 43 43 44 44 44 44 44 44 44 44 43 43 43 43 43 43 43 42 42 42 41 41 41 41 40 40 40 39 39 39 39 38 37 36 37 37 38 36 37 37 37 37 38 39 40 40 41 42 43 44 45 47 48 49 50 51 52